Regional Weather Roundup
Issued by NWS Portland, ME

Current Version | Previous Version | Text Only | Print | Product List | Glossary On
Versions: 1 2 3 4 5 6 7 8 9 10 11 12 13 14 15 16 17 18 19 20 21 22 23 24 25 26 27 28 29 30 31 32 33 34 35 36 37 38 39 40 41 42 43 44 45 46 47 48 49 50
000 ASUS41 KGYX 171110 RWRGYX WEATHER ROUNDUP FOR MAINE AND NEW HAMPSHIRE NATIONAL WEATHER SERVICE GRAY ME 700 AM EDT WED SEP 17 2014 MEZ002-005-006-010-012-015-018-020-021-024-026-027-029-171200- MAINE CITY SKY/WX TMP DP RH WIND PRES REMARKS PORTLAND CLEAR 45 44 97 CALM 29.99R SANFORD CLEAR 41 36 81 CALM 30.00R BAR HARBOR CLEAR 46 46 100 CALM 29.98R WISCASSET CLEAR 45 43 93 CALM 30.00R ROCKLAND CLEAR 46 46 100 W6 29.98R FRYEBURG FOG 38 36 92 N3 30.01R VSB 1/4 LEWISTONAUBURN CLEAR 43 39 87 CALM 29.99S AUGUSTA CLEAR 47 46 97 NW5 29.99S FOG WATERVILLE CLOUDY 43 37 81 CALM 29.94R VSB<1/4 BANGOR FOG 46 44 93 S3 29.98R VSB 1/4 GREENVILLE N/A 44 42 93 CALM 29.94R MILLINOCKET CLEAR 41 39 93 NW3 29.95S HOULTON CLEAR 46 45 96 SW5 29.91R PRESQUE ISLE CLEAR 39 36 87 CALM 29.89R FRENCHVILLE PTCLDY 42 39 89 SW5 29.87R CARIBOU CLEAR 45 42 89 W8 29.88R $$ NHZ002-005-008-009-011-012-014-171200- NEW HAMPSHIRE CITY SKY/WX TMP DP RH WIND PRES REMARKS PORTSMOUTH CLEAR 47 46 96 W5 29.99R ROCHESTER FOG 46 44 93 NW6 30.00R VSB 1/2 NASHUA CLEAR 44 43 97 CALM 30.02R MANCHESTER PTCLDY 47 44 90 CALM 30.00R CONCORD FOG 47 47 100 CALM 30.02R VSB<1/4 LACONIA CLOUDY 46 45 93 SW5 30.00R VSB 1/2 PLYMOUTH FOG 44 44 100 CALM 30.02R VSB 1/4 BERLIN FOG 35 35 100 CALM 30.01R VSB<1/4 WHITEFIELD FOG 42 41 96 CALM 30.01S VSB<1/4 JAFFREY CLEAR 39 38 96 S3 30.03R LEBANON FOG 46 44 93 S5 30.02R VSB 1/4 MT WASHINGTON FOG 30 30 100 W28 N/A VSB 1/16WCI 16 $$ VTZ005-007-008-171200- VERMONT CITY SKY/WX TMP DP RH WIND PRES REMARKS ST JOHNSBURY N/A 44 44 100 MISG 30.01R MONTPELIER CLEAR 37 37 100 CALM 30.05 BURLINGTON CLEAR 44 42 93 CALM 30.01S $$ MAZ007-012-024-CTZ003-RIZ002-NYZ038-NYZ072-171200- SOUTHERN NEW ENGLAND AND NY CITY SKY/WX TMP DP RH WIND PRES REMARKS BOSTON PTCLDY 55 48 77 W5 30.01R WORCESTER CLEAR 48 44 86 NW10 30.02R NANTUCKET PTCLDY 53 50 89 NE3 30.00S PROVIDENCE PTCLDY 48 46 93 SW3 30.03R HARTFORD PTCLDY 43 41 93 NW3 30.04R ALBANY PTCLDY 45 42 89 S3 30.05R NEW YORK CITY PTCLDY 60 50 69 CALM 30.04R $$ ANZ081-ANZ082-ANZ150-NHZ014-MEZ023>029-171200- COASTAL MARINE OBSERVATIONS STATION/POSITION TIME TEMP WIND PRES WAVE AIR SEA DIR/SP/G HT/PER (UTC) (F) (DEG/KT/KT) (MB) (FT/S) MATINICUS ROCK 1100 330/ 6/ 7 1014.9R PORTLAND WX BUOY 1050 55 59 330/ 4/ 4 1015.2R 1/14 WELLS 1000 50 58 250/ 1/ 2 1014.4R ISLE OF SHOALS 1100 54 310/ 11/ 12 1015.1R JEFFREYS LEDGE 1021 61 N/A 2/13 CASHES LEDGE BUO 1050 60 63 1014.9R 2/12 $$ .............KEY.............. WCI - WIND CHILL TC - TEMPERATURE IN CELSIUS VSB - VISIBILITY IN MILES HX - HEAT INDEX FAIR- INDICATES FEW OR NO CLOUDS BELOW 12,000 FT, WITH NO SIGNIFICANT WEATHER AND/OR OBSTRUCTIONS TO VISIBILITY.

USA.gov is the U.S. government's official web portal to all federal, state and local government web resources and services.